Quincy, IL

2:21 AM CST on December 09, 2019 (GMT -0600)
Quincy Regional-Baldwin

Weather History for KUIN - November, 2019

Change the Weather History Date:

Thursday, November 14, 2019

  Actual Average Record
Temperature  
Mean Temperature 28 °F 43 °F  
Max Temperature 36 °F 52 °F 75 °F (1960)
Min Temperature 19 °F 35 °F 9 °F (1940)
Degree Days  
Heating Degree Days 37 22  
Month to date heating degree days 416 261  
Since 1 July heating degree days 837 685  
Cooling Degree Days 0 0  
Month to date cooling degree days 0 0  
Year to date cooling degree days 1346 1093  
Moisture  
Dew Point 22 °F    
Average Humidity 73    
Maximum Humidity 89    
Minimum Humidity 59    
Precipitation  
Precipitation 0.00 in 0.11 in 1.03 in (1926)
Month to date precipitation 0.00 1.44  
Year to date precipitation 39.39 33.50  
Sea Level Pressure  
Sea Level Pressure 30.29 in    
Wind  
Wind Speed 4 mph ()    
Max Wind Speed 15 mph    
Max Gust Speed 19 mph    
Visibility 9.7 miles    
Events      
T = Trace of Precipitation, MM = Missing Value Source: Averaged Metar Reports

Daily Weather History Graph

Daily Weather History Graph

Search for Another Location

Airport or City:

Astronomy

Nov. 14, 2019 Rise Set
Actual Time 6:48 AM CST 4:49 PM CST
Civil Twilight 6:19 AM CST 5:18 PM CST
Nautical Twilight 5:46 AM CST 5:51 PM CST
Astronomical Twilight 5:14 AM CST 6:22 PM CST
Moon 6:35 PM CST (11/14) 8:44 AM CST (11/14)
Length of Visible Light 10h 58m
Length of Day
10h 01m
Waning Gibbous, 95% of the Moon is Illuminated
Nov 14
Waning Gibbous
Nov 19
Last Quarter
Nov 26
New
Dec 4
First Quarter
Dec 11
Full

Hourly Weather History & Observations

Time (CST) Temp. Windchill Dew Point Humidity Pressure Visibility Wind Dir Wind Speed Gust Speed Precip Events Conditions
12:54 AM 28.0 °F - 19.9 °F 72% 30.11 in 10.0 mi Calm Calm - N/A   Overcast
1:54 AM 28.9 °F 25.2 °F 21.9 °F 75% 30.14 in 10.0 mi SW 3.5 mph - N/A   Overcast
2:54 AM 28.0 °F 24.2 °F 21.9 °F 78% 30.15 in 10.0 mi West 3.5 mph - N/A   Overcast
3:54 AM 28.9 °F - 21.9 °F 75% 30.16 in 10.0 mi Calm Calm - N/A   Overcast
4:54 AM 28.0 °F - 21.9 °F 78% 30.18 in 10.0 mi Calm Calm - N/A   Overcast
5:32 AM 28.0 °F 24.2 °F 21.9 °F 78% 30.18 in 10.0 mi West 3.5 mph - N/A   Overcast
5:54 AM 28.0 °F 22.8 °F 23.0 °F 81% 30.21 in 10.0 mi WNW 4.6 mph - N/A   Overcast
6:54 AM 30.0 °F 23.2 °F 25.0 °F 82% 30.25 in 10.0 mi NW 6.9 mph - N/A   Overcast
7:54 AM 30.9 °F 23.5 °F 27.0 °F 85% 30.27 in 9.0 mi NW 8.1 mph - N/A   Overcast
8:54 AM 32.0 °F 24.8 °F 25.0 °F 75% 30.29 in 10.0 mi NNW 8.1 mph - N/A   Overcast
9:54 AM 33.1 °F 26.1 °F 25.0 °F 72% 30.31 in 10.0 mi WNW 8.1 mph - N/A   Mostly Cloudy
10:24 AM 34.0 °F 27.2 °F 25.0 °F 70% 30.29 in 10.0 mi NW 8.1 mph - N/A   Partly Cloudy
10:54 AM 34.0 °F 26.0 °F 25.0 °F 70% 30.32 in 10.0 mi NW 10.4 mph - N/A   Clear
11:29 AM 34.0 °F 25.0 °F 24.1 °F 67% 30.30 in 10.0 mi WNW 12.7 mph - N/A   Mostly Cloudy
11:54 AM 34.0 °F 24.6 °F 24.1 °F 67% 30.32 in 10.0 mi NW 13.8 mph - N/A   Mostly Cloudy
12:34 PM 33.1 °F 26.1 °F 23.0 °F 66% 30.30 in 10.0 mi NW 8.1 mph - N/A   Scattered Clouds
12:54 PM 35.1 °F 26.4 °F 24.1 °F 64% 30.32 in 10.0 mi WNW 12.7 mph - N/A   Scattered Clouds
1:03 PM 34.0 °F 26.6 °F 24.1 °F 67% 30.30 in 10.0 mi NW 9.2 mph - N/A   Mostly Cloudy
1:54 PM 35.1 °F 27.4 °F 24.1 °F 64% 30.32 in 10.0 mi NW 10.4 mph - N/A   Mostly Cloudy
2:28 PM 36.0 °F 29.0 °F 23.0 °F 59% 30.30 in 10.0 mi NW 9.2 mph - N/A   Mostly Cloudy
2:54 PM 34.0 °F 25.0 °F 21.9 °F 61% 30.33 in 10.0 mi NW 12.7 mph - N/A   Scattered Clouds
3:54 PM 34.0 °F 28.8 °F 21.9 °F 61% 30.35 in 10.0 mi NNW 5.8 mph - N/A   Clear
4:54 PM 30.0 °F 26.5 °F 21.9 °F 72% 30.35 in 10.0 mi North 3.5 mph - N/A   Clear
5:54 PM 28.9 °F 23.9 °F 21.0 °F 72% 30.37 in 10.0 mi North 4.6 mph - N/A   Clear
6:54 PM 30.0 °F - 21.0 °F 69% 30.38 in 10.0 mi Calm Calm - N/A   Clear
7:54 PM 24.1 °F - 19.0 °F 81% 30.39 in 10.0 mi Calm Calm - N/A   Clear
8:54 PM 25.0 °F - 19.0 °F 78% 30.40 in 9.0 mi Calm Calm - N/A   Clear
9:54 PM 24.1 °F - 19.0 °F 81% 30.39 in 9.0 mi Calm Calm - N/A   Clear
10:54 PM 23.0 °F - 19.0 °F 85% 30.39 in 8.0 mi Calm Calm - N/A   Clear
11:54 PM 19.9 °F 14.9 °F 17.1 °F 89% 30.39 in 6.0 mi SSW 3.5 mph - N/A   Clear